Tracking 18945 objects as of 20-Jan-2018
HD Live streaming from Space Station
objects crossing your sky now

FLOCK 3P 13

Track FLOCK 3P 13 now!
10-day predictions
FLOCK 3P 13 is classified as:


NORAD ID: 42040
Int'l Code: 2017-008CW
Perigee: 496.2 km
Apogee: 507.3 km
Inclination: 97.5 °
Period: 94.5 minutes
Semi major axis: 6872 km
RCS: Unknown
Launch date: February 15, 2017
Source: United States (US)
Launch site: SRIHARIKOTA (SRI)
aabbcc
Your satellite tracking list
Your tracking list is empty




NASA's NSSDC Master Catalog

Two Line Element Set (TLE):
1 42040U 17008CW  18019.91971262 +.00001237 +00000-0 +54452-4 0  9999
2 42040 097.4703 085.6454 0008093 166.4206 193.7250 15.23730223050694
Source of the keplerian elements: AFSPC